Hourly Data Report for February 26, 2019

TORONTO INTL A
ONTARIO
Current Station Operator: NAVCAN

43°40'36.000" N
79°37'50.000" W
173.40 m
6158731
71624
YYZ

Download Data

Hourly Data (February 2019)
Hourly Data Report for February 26, 2019
TIME
LST
Temp Definition
°C
Dew Point Definition
°C
Rel Hum Definition
%
Precip. Amount Definition
mm

Wind Dir Definition
10's deg

Wind Spd Definition
km/h
Visibility Definition
km
Stn Press Definition
kPa
Hmdx Definition


Wind Chill Definition


Weather Definition


00:00 -7.8 -12.7 68   28 21 24.1 100.58   -15 LegendNANA
01:00 -8.1 -13.3 66   29 27 24.1 100.65   -17 Mostly Cloudy
02:00 -8.5 -13.3 68   31 16 24.1 100.71   -15 LegendNANA
03:00 -8.6 -14.0 65   32 27 24.1 100.76   -17 LegendNANA
04:00 -9.1 -15.1 62   31 21 24.1 100.81   -17 Mostly Cloudy
05:00 -9.8 -16.1 60   31 24 24.1 100.88   -18 LegendNANA
06:00 -10.0 -16.4 60   32 14 24.1 100.90   -16 LegendNANA
07:00 -10.3 -16.8 59   29 15 24.1 100.93   -17 Mostly Cloudy
08:00 -10.1 -16.5 60   28 14 24.1 100.97   -17 LegendNANA
09:00 -9.3 -16.0 59   26 9 24.1 101.02   -14 LegendNANA
10:00 -8.2 -15.1 58   30 15 24.1 101.02   -15 Mainly Clear
11:00 -6.9 -14.3 56   28 30 24.1 101.01   -15 LegendNANA
12:00 -6.9 -15.2 52   32 37 24.1 101.03   -16 LegendNANA
13:00 -6.5 -15.5 50   30 29 24.1 101.00   -15 Mostly Cloudy
14:00 -7.3 -14.2 58   35 16 9.7 101.03   -14 Snow Showers
15:00 -7.8 -14.7 58   36 23 24.1 101.05   -16 LegendNANA
16:00 -8.4 -15.6 56   36 18 24.1 101.14   -15 Mostly Cloudy
17:00 -8.8 -16.2 55   34 22 24.1 101.10   -17 LegendNANA
18:00 -9.7 -16.8 57   1 16 24.1 101.18   -17 LegendNANA
19:00 -9.7 -16.5 58   35 15 24.1 101.21   -16 Mostly Cloudy
20:00 -9.9 -16.2 60   1 14 24.1 101.21   -16 LegendNANA
21:00 -10.1 -16.2 61   34 14 24.1 101.18   -17 LegendNANA
22:00 -10.1 -16.3 61   36 17 24.1 101.19   -17 Mostly Cloudy
23:00 -10.1 -16.6 59   36 18 24.1 101.17   -18 LegendNANA

Notes on Data Quality.

Legend

  • E = Estimated
  • M = Missing
  • NA = Not Available*
  • [empty] = Indicates an unobserved value
Date modified: